Location: Boshoek
(52.3408°N, 6.0309°E)
Time: 05:07:24
(UTC+00:00)

Daily predictions for brighter satellites

Satellite Brightness Start Highest point End
(mag) Time Altitude Azimuth Time Altitude Azimuth Time Altitude Azimuth
Cosmos 1758 Rocket 4.4 00:03:13 10° NNW 00:06:37 40° WNW 00:06:37 40° WNW
Cosmos 1331 Rocket 4.0 00:06:53 66° WSW 00:07:29 74° WNW 00:12:46 10° NNE
ATLAS 2AS CENTAUR R/B 2.7 00:09:45 43° SW 00:12:18 83° NW 00:19:09 10° NE
IDEFIX/ARIANE 42P 4.3 00:11:19 10° NE 00:15:09 21° E 00:16:41 18° ESE
Meteor 1-20 Rocket 4.4 00:12:27 10° NNW 00:17:43 51° W 00:18:03 50° WSW
Cosmos 1900 4.2 00:17:30 73° WSW 00:17:54 80° NW 00:22:52 10° NE
Meteor 1-5 Rocket 4.0 00:14:48 10° NNW 00:20:12 86° W 00:20:58 67° S
Cosmos 1953 Rocket 4.0 00:17:32 10° N 00:21:55 53° ENE 00:22:18 51° E
Cosmos 1110 Rocket 4.4 00:22:59 47° W 00:24:01 55° WNW 00:29:15 10° NNE
Cosmos 1980 Rocket 2.3 00:18:31 10° NW 00:24:06 57° WSW 00:24:19 56° WSW
USA 234 3.7 00:21:00 10° E 00:27:26 63° N 00:33:54 10° WNW
Cosmos 44 Rocket 4.4 00:29:47 32° ESE 00:29:47 32° ESE 00:34:19 10° NE
Cosmos 1825 Rocket 3.6 00:28:22 10° NNW 00:32:19 70° NW 00:32:19 70° NW
COSMOS 2406 4.4 00:32:29 27° SE 00:33:42 30° ESE 00:38:38 10° NE
Meteor 2-10 4.1 00:29:40 10° NNW 00:35:09 76° W 00:36:02 62° SSW
Cosmos 2369 3.6 00:29:43 10° NNW 00:35:26 80° WSW 00:36:38 57° SSE
Cosmos 1634 Rocket 4.4 00:35:56 38° SE 00:37:59 54° E 00:43:58 10° NNE
CZ-4C R/B 4.3 00:38:23 10° N 00:40:24 33° NNW 00:40:24 33° NNW
Cosmos 2084 3.4 00:46:23 73° ENE 00:46:23 73° ENE 00:50:12 10° NE
Cosmos 1627 Rocket 4.4 00:40:17 10° NNW 00:46:35 82° W 00:48:29 48° S
Spot 1 4.2 00:42:57 10° NNE 00:47:01 58° ESE 00:47:07 58° ESE
Cosmos 1607 4.5 00:47:22 38° SSE 00:48:41 43° ESE 00:54:32 10° NE
Cosmos 2360 Rocket 3.4 00:45:41 10° NNW 00:51:03 41° NE 00:56:24 10° ESE
Cosmos 2333 Rocket 2.6 00:46:38 10° NNW 00:52:16 60° NE 00:57:04 14° SE
Cosmos-2242 3.3 00:52:12 53° ESE 00:52:28 54° E 00:56:34 10° NNE
USA 281 3.3 00:51:27 20° SE 00:56:13 78° ENE 01:02:49 10° NNW
Cosmos 1452 Rocket 4.3 00:58:56 35° W 01:00:23 42° NW 01:05:24 10° NNE
Cosmos 2082 Rocket 2.1 00:59:24 53° SSW 01:00:49 82° ESE 01:06:35 10° NNE
Cosmos 1833 Rocket 4.0 01:00:04 20° W 01:02:57 32° NW 01:07:59 10° NNE
Cosmos 2098 Rocket 4.2 01:03:15 39° WSW 01:04:34 45° WNW 01:09:57 10° N
Meteor 2-2 Rocket 4.4 01:02:52 42° SSE 01:04:41 64° E 01:10:16 10° NNE
Cosmos 2278 4.0 01:00:21 10° NNW 01:06:05 68° NE 01:11:11 13° SE
Cosmos 2322 Rocket 2.9 01:00:58 10° NNW 01:06:30 52° NE 01:12:00 10° SE
Cosmos 2279 Rocket 4.3 01:03:59 34° SSE 01:06:39 61° E 01:12:48 10° NNE
Cosmos 1486 Rocket 4.1 01:01:41 10° NNW 01:06:55 74° ENE 01:09:36 29° SE
Resurs 1-4 Rocket 4.3 01:04:37 10° NE 01:08:10 18° E 01:11:41 10° SE
Cosmos 1867 4.1 01:06:15 34° W 01:08:24 54° NW 01:13:46 10° NE
Cosmos 2221 4.1 01:07:40 22° ESE 01:09:04 26° E 01:12:32 10° NNE
NOSS 3-3 (A) 4.3 01:14:12 35° SSE 01:15:35 42° ESE 01:21:21 10° NE
ACS3 Solar Sail 1.7 01:10:19 10° N 01:16:21 79° WNW 01:18:32 42° SSW
Cosmos 1777 Rocket 4.1 01:12:15 10° NNW 01:17:34 78° ENE 01:20:41 25° SSE
Cosmos 1606 Rocket 4.3 01:18:01 38° W 01:18:25 38° WNW 01:22:34 10° N
Cosmos 2219 Rocket 3.4 01:15:03 10° NNW 01:20:24 42° NE 01:25:45 10° ESE
SL-16 R/B 2.1 01:15:57 10° NNW 01:21:40 82° WSW 01:24:52 27° SSE
Cosmos 1437 Rocket 4.4 01:22:27 20° WNW 01:22:27 20° WNW 01:24:50 10° NNW
H-2A R/B 4.4 01:19:37 10° NE 01:22:48 16° E 01:26:01 10° SE
GP-B 3.2 01:18:45 10° N 01:23:02 54° W 01:23:25 52° WSW
CZ-4C R/B 1.7 01:22:06 55° SW 01:23:08 89° NW 01:28:51 10° NE
Cosmos 1271 Rocket 4.0 01:27:38 25° ESE 01:28:25 28° E 01:31:26 10° NNE
Meteor 1-14 Rocket 4.4 01:23:09 10° N 01:28:55 73° ENE 01:32:37 22° SSE
ATLAS 3B R/B 3.8 01:22:45 10° WNW 01:29:00 28° WSW 01:29:24 28° WSW
SL-4 R/B 3.4 01:31:34 24° SE 01:31:34 24° SE 01:33:14 10° ESE
CZ-2C R/B 4.5 01:30:23 16° W 01:30:33 16° W 01:33:47 10° NW
USA 267 4.2 01:25:33 10° ENE 01:31:24 33° SE 01:34:01 25° S
NOSS 3-3 (C) 4.3 01:30:27 34° S 01:32:18 46° ESE 01:38:14 10° NE
Cosmos 2058 Rocket 3.0 01:32:04 56° SW 01:32:52 71° WNW 01:37:18 10° N
Cosmos 2266 Rocket 4.1 01:28:22 10° N 01:34:31 71° ENE 01:39:09 18° SSE
Cosmos 1470 2.4 01:32:39 10° N 01:36:00 70° ENE 01:36:16 65° ESE
Gbstr 26 Del rocket 3.4 01:37:23 38° SE 01:37:23 38° SE 01:39:53 10° ESE
Okean 1 4.4 01:37:01 27° WNW 01:37:01 27° WNW 01:39:55 10° N
KORONAS-FOTON 3.3 01:38:28 88° NW 01:38:28 88° NW 01:41:49 10° N
Cosmos 909 Rocket 4.1 01:37:58 33° SW 01:40:58 75° NW 01:47:29 10° NE
Cosmos 2333 4.4 01:41:25 10° NNW 01:47:06 75° ENE 01:52:49 10° SE
Cosmos 1536 3.3 01:43:43 10° NNW 01:46:48 38° WNW 01:46:48 38° WNW
DMSP B5D2-2 4.4 01:45:23 11° SSE 01:50:20 67° ENE 01:55:30 10° N
Cosmos 1812 Rocket 4.1 01:49:34 28° SSE 01:51:36 54° E 01:55:51 10° NNE
NOSS 3-4 (A) 3.9 01:45:17 10° NW 01:51:46 76° NE 01:59:28 10° SE
Meteor 2-6 Rocket 4.2 01:49:06 33° SSW 01:51:53 87° WNW 01:57:51 10° NNE
NOSS 3-4 (C) 3.9 01:45:49 10° NW 01:52:19 75° NE 02:00:01 10° SE
Meteor 1-26 Rocket 4.5 01:51:48 34° SW 01:53:47 50° WNW 01:59:04 10° N
IDEFIX/ARIANE 42P 2.5 01:49:58 10° NNE 01:55:08 72° WNW 01:57:22 35° SW
Envisat 3.9 01:52:50 10° NNE 01:57:42 44° E 02:01:23 17° SSE
Aureole 1 Rocket 3.8 01:54:39 10° NNW 01:58:34 54° ENE 02:03:27 10° SE
Cosmos 2084 Rocket 3.2 01:58:01 10° NW 02:02:14 80° SW 02:06:28 10° SE
Cosmos 1707 3.5 02:03:05 25° WNW 02:03:05 25° WNW 02:05:11 10° NNW
ATLAS 2AS CENTAUR R/B 3.8 01:57:41 10° W 02:04:03 38° NNW 02:10:20 10° NE
Iridium 4 Rocket 3.7 02:03:00 19° SSE 02:06:17 65° E 02:11:22 10° N
MOZ.5/SAFIR/RUBIN 5/SL-8 3.7 02:05:32 25° S 02:08:13 70° WSW 02:12:52 10° NNW
H-2A R/B 2.5 02:06:25 14° SSE 02:09:24 63° ENE 02:12:57 10° N
Cosmos 1975 2.6 02:06:09 10° NNW 02:09:44 57° W 02:10:36 44° SSW
Cosmos 990 Rocket 3.8 02:05:06 10° NNW 02:10:15 76° WSW 02:15:22 10° SSE
USA 234 3.2 02:03:48 10° ESE 02:10:22 82° SSW 02:16:58 10° WNW
Cosmos 44 Rocket 3.7 02:08:21 28° WSW 02:10:57 60° NW 02:16:07 10° NE
ADEOS II 3.4 02:06:21 10° NNE 02:11:11 36° E 02:15:58 10° SSE
ALOS 3.1 02:11:26 10° NNE 02:15:50 46° E 02:19:31 14° S
Cosmos 1763 Rocket 3.6 02:13:16 25° SSW 02:16:24 73° ESE 02:21:42 10° NNE
MSX 4.1 02:11:00 10° N 02:16:37 54° WNW 02:19:47 25° SW
Cosmos 1238 Rocket 3.8 02:15:06 16° SE 02:16:48 29° E 02:19:30 10° NNE
COSMOS 2406 3.5 02:14:30 27° SW 02:17:39 61° NW 02:23:23 10° NNE
COSMOS 2428 4.1 02:13:58 10° NNW 02:19:25 42° NE 02:24:48 10° ESE
CZ-2D R/B 2.7 02:14:43 10° NNE 02:19:53 54° E 02:24:32 13° S
SL-16 R/B 3.9 02:16:26 10° SE 02:22:15 42° ENE 02:28:05 10° N
ADEOS Rocket 3.6 02:15:20 10° NNE 02:22:51 78° WNW 02:28:49 19° SSW
Cosmos 1898 Rocket 4.1 02:23:11 10° NNW 02:28:19 60° ENE 02:33:25 10° SE
Spot 2 4.4 02:24:23 10° SSE 02:29:12 89° E 02:34:13 10° NNW
Cosmos 1354 Rocket 4.2 02:27:35 10° NNW 02:32:43 52° WSW 02:37:46 10° S
Cosmos 1937 Rocket 4.4 02:27:44 10° NNW 02:32:49 50° ENE 02:37:50 10° SE
Cosmos 220 Rocket 4.3 02:32:09 27° WSW 02:33:58 46° WNW 02:37:53 10° NNE
FENGYUN 3A 4.1 02:29:40 10° N 02:34:52 49° WNW 02:38:14 21° SW
Cosmos 2360 Rocket 2.4 02:29:44 10° NW 02:35:09 47° WSW 02:40:33 10° S
Cosmos 1607 4.3 02:31:28 19° WSW 02:35:50 57° NW 02:42:02 10° NE
Cosmos 1842 4.1 02:35:26 23° W 02:35:59 24° WNW 02:38:41 10° NNW
Cosmos 2333 Rocket 3.0 02:31:23 10° NW 02:36:14 30° WSW 02:38:59 20° SSW
Alouette 2 Rocket 3.2 02:32:53 10° NNW 02:37:12 89° ENE 02:40:46 10° SSE
USA 305 1.9 02:38:24 35° NNW 02:38:38 37° N 02:40:02 10° ENE
EP 1 4.0 02:36:39 10° NW 02:39:14 72° SW 02:41:57 10° SE
USA 281 4.1 02:38:17 20° SW 02:41:20 27° WSW 02:46:49 10° NW
Meteor 2-10 Rocket 4.1 02:37:37 10° N 02:42:40 59° ENE 02:47:50 10° SSE
H-2A R/B 4.3 02:41:29 10° NE 02:44:36 21° E 02:47:40 10° SE
Cosmos 540 Rocket 3.4 02:41:19 20° SSW 02:44:54 78° WNW 02:50:05 10° NNE
Cosmos 2082 Rocket 3.6 02:41:13 12° W 02:45:33 28° NW 02:50:26 10° NNE
Cosmos 2221 3.2 02:43:58 23° WSW 02:45:57 36° WNW 02:49:48 10° N
NPP 4.4 02:42:57 10° N 02:47:56 39° WNW 02:51:28 18° WSW
Resurs 1-4 Rocket 2.1 02:43:16 10° NNE 02:48:37 85° WNW 02:53:19 13° SSW
Cosmos 2322 Rocket 2.8 02:45:18 10° NW 02:50:21 34° WSW 02:55:23 10° S
Cosmos 468 Rocket 4.2 02:46:38 14° SSW 02:51:13 74° ESE 02:56:31 10° NNE
BREEZE-M DEB (TANK) 3.2 02:50:12 20° WSW 02:52:04 53° S 02:59:19 10° ESE
DNEPR-1 R/B 4.3 02:48:25 10° NW 02:53:34 55° SW 02:59:50 10° SSE
Cosmos 1766 Rocket 3.5 02:52:01 10° NNW 02:56:20 63° W 03:00:34 10° S
ACS3 Solar Sail 3.4 02:53:49 10° N 02:57:55 19° NW 03:02:02 10° W
Cosmos 1833 4.2 02:53:59 15° SSW 02:58:48 89° ESE 03:04:31 10° NNE
Cosmos 1271 Rocket 3.8 03:01:02 18° WSW 03:02:40 24° WNW 03:05:35 10° N
H-2A R/B 2.1 02:57:38 10° NNE 03:02:46 89° WNW 03:08:02 10° SSW
Cosmos 2219 Rocket 2.5 02:59:04 10° NW 03:04:24 45° WSW 03:09:44 10° S
Cosmos 2237 Rocket 3.7 02:59:02 10° NNW 03:04:26 41° NE 03:09:47 10° ESE
CRYOSAT 2 4.3 02:59:57 10° S 03:04:50 82° W 03:09:45 10° N
SL-16 R/B 3.7 03:01:27 10° WNW 03:04:52 16° W 03:06:38 14° WSW
RESURS DK-1 4.3 03:02:01 10° NNW 03:05:39 32° NE 03:09:14 10° ESE
Meteor 1-11 Rocket 4.4 03:00:50 10° NNW 03:06:09 36° W 03:11:22 10° SSW
NOSS 3-3 (A) 4.3 03:01:35 14° WSW 03:06:15 56° NNW 03:12:49 10° NE
SL-4 R/B 3.2 03:05:08 17° WSW 03:06:20 19° SW 03:09:06 10° S
Meteor 2-11 Rocket 4.4 03:00:54 10° NNW 03:07:04 76° W 03:13:11 10° S
CZ-4C R/B 3.5 03:07:36 10° W 03:12:06 34° NNW 03:17:48 10° NE
USA 290 2.6 03:10:18 17° SW 03:12:27 46° WNW 03:15:32 10° NNE
ARGOS 3.8 03:08:23 10° NNE 03:13:43 58° E 03:19:00 10° S
Cosmos 1408 Rocket 4.4 03:10:13 10° N 03:14:27 53° ENE 03:18:37 10° SSE
USA 267 3.3 03:08:24 10° ENE 03:15:01 82° SSE 03:21:22 11° WSW
METEOR-M 4.2 03:11:01 10° NNE 03:16:23 84° ESE 03:21:43 10° SSW
Gbstr 26 Del rocket 4.1 03:19:26 11° W 03:21:50 18° SW 03:24:27 10° S
NOSS 3-3 (C) 4.4 03:17:53 11° WSW 03:23:07 53° NNW 03:29:45 10° NE
Cosmos 2322 3.7 03:19:08 10° NNW 03:24:52 75° WSW 03:30:32 10° SSE
Cosmos 372 Rocket 4.4 03:23:57 10° NW 03:28:44 39° WSW 03:33:28 10° S
NOSS 3 (A) 3.9 03:28:27 10° NW 03:30:39 72° SW 03:33:30 10° SE
ISS -2.2 03:29:26 10° SSW 03:32:20 27° SSE 03:35:14 10° E
IDEFIX/ARIANE 42P 4.5 03:30:48 10° NNW 03:33:45 16° NW 03:36:44 10° W
Envisat 3.9 03:32:00 10° N 03:36:31 33° WNW 03:41:01 10° SW
BREEZE-M DEB (TANK) 3.3 03:31:54 10° SW 03:37:28 33° SSE 03:40:08 10° E
Aureole 1 Rocket 4.4 03:37:02 10° NW 03:40:21 22° WSW 03:44:12 10° SSW
Meteor 2-4 Rocket 3.9 03:35:23 10° SSW 03:40:36 51° WNW 03:45:50 10° N
Cosmos 1461 2.7 03:37:28 10° SW 03:41:12 77° SE 03:44:56 10° NE
NOSS 3-4 (A) 4.4 03:36:20 10° WNW 03:42:27 36° WSW 03:49:28 10° S
NOSS 3-4 (C) 4.4 03:36:52 10° NW 03:43:01 37° WSW 03:50:03 10° S
H-2A R/B 4.0 03:41:55 10° WSW 03:43:44 13° W 03:45:33 10° WNW
AQUA 3.8 03:39:18 10° NNE 03:44:01 84° WNW 03:48:41 10° SSW
Meteor 1-28 Rocket 3.6 03:41:21 10° SSE 03:44:33 58° ENE 03:47:46 10° N
NOSS 0 Rocket 3.9 03:38:58 10° NW 03:45:11 77° WSW 03:51:20 10° SSE
Cosmos 1066 Rocket 4.2 03:40:42 10° SSW 03:46:01 63° WNW 03:51:21 10° N
Cosmos 1151 Rocket 3.2 03:45:20 10° S 03:49:32 75° E 03:53:47 10° NNE
Cosmos 1500 Rocket 3.5 03:45:28 10° NNW 03:49:53 79° W 03:54:18 10° S
ADEOS II 2.6 03:45:53 10° N 03:50:48 42° WNW 03:55:42 10° SW
CZ-3 R/B 4.4 03:50:26 10° WSW 04:07:09 23° SSW 04:14:42 10° SSE
